Find Starlink 34356

NORAD ID: 64303 Int'l Des: 2025-123 Owner: SPXS Country: US Constellation: starlink operational
LEOCIRCULAR

Current View

Loading 3D Globe...

About Starlink 34356

Description loading...

Upcoming Passes

Passes for default location (London). Set your location on the main map for personalized predictions.

Altitude History

Loading altitude history...

Two-Line Element Set

1 64303U 25123N 26149.74270207 .00002330 00000-0 20296-3 0 9990
2 64303 70.0017 349.9287 0002392 268.0995 91.9890 14.98333789 53762
Epoch: May 29, 2026 • Age: 15 hours

Current Status

Altitude 574.2 km
Velocity 7.57 km/s
Sub-Earth Point 2.52°N, 144.02°E
Launch Date Jun 8, 2025
Age 0.9 years
Type internet

Technical Details

Classification Payload
Mass 575.00 kg
Dry Mass 530.00 kg
Total Mass 575.00 kg
Length 0.30 m
Diameter 4.10 m
Span 29.00 m
Shape Box + pan
Manufacturer SPXS
Bus Type Starlink V2MO
Phase Status In Orbit
Owner/State SPXS/US

Most Searched